ZL3GL-4 Weather Reports


time (UTC)temp
F
wind
direction
speed
knots
gust
knots
rain 1hr
in
rain 24hr
in
rain mn
in
humidity
%
barometer
mb
20260505100447 46 17 0.0 0.0 0.00 0.00 0.00 100 1024.7
20260505095042 46 288 0.9 0.0 0.00 0.00 0.00 100 1024.8
20260505093640 46 297 2.6 3.5 0.00 0.00 0.00 100 1024.9
20260505092236 46 356 0.9 1.7 0.00 0.00 0.00 100 1025.2
20260505090836 46 284 0.9 2.6 0.00 0.00 0.00 100 1025.3
20260505085429 46 45 1.7 2.6 0.00 0.00 0.00 100 1025.3
20260505084026 47 7 0.0 1.7 0.00 0.00 0.00 100 1025.3
20260505082622 47 37 0.9 1.7 0.00 0.00 0.00 100 1025.4
20260505081218 47 284 2.6 0.9 0.00 0.00 0.00 100 1025.5
20260505075814 47 15 1.7 1.7 0.00 0.00 0.00 100 1025.7
20260505074409 47 38 0.0 0.0 0.00 0.00 0.00 100 1025.7
20260505073004 47 349 0.9 2.6 0.00 0.00 0.00 100 1025.9
20260505071600 47 305 0.9 0.9 0.00 0.00 0.00 100 1026.1
20260505070156 47 343 4.3 1.7 0.00 0.00 0.00 100 1026.0
20260505064753 47 312 2.6 5.2 0.00 0.00 0.00 100 1025.9
20260505063348 47 353 0.9 0.9 0.00 0.00 0.00 100 1025.9
20260505061946 47 350 2.6 1.7 0.00 0.00 0.00 100 1025.8
20260505060542 47 346 2.6 2.6 0.00 0.00 0.00 100 1025.7
20260505055141 48 346 2.6 4.3 0.00 0.00 0.00 100 1025.6
20260505053735 48 349 2.6 2.6 0.00 0.00 0.00 99 1025.4
20260505052331 48 335 1.7 2.6 0.00 0.00 0.00 99 1025.5
20260505050929 49 345 0.9 1.7 0.00 0.00 0.00 98 1025.4
20260505041316 49 359 3.5 3.5 0.00 0.00 0.00 97 1025.6
20260505035910 49 340 2.6 3.5 0.00 0.00 0.00 96 1025.7
20260505033103 50 294 3.5 2.6 0.00 0.00 0.00 95 1025.8
20260505031704 50 90 1.7 2.6 0.00 0.00 0.00 96 1026.0
20260505030301 50 308 2.6 4.3 0.00 0.00 0.00 95 1026.0
20260505024854 51 18 4.3 4.3 0.00 0.00 0.00 94 1026.0
20260505023449 51 68 3.5 2.6 0.00 0.00 0.00 92 1026.1
20260505022046 52 329 4.3 4.3 0.00 0.00 0.00 90 1026.2
20260505020640 52 346 4.3 2.6 0.00 0.00 0.00 91 1026.3
20260505015242 52 80 2.6 3.5 0.00 0.00 0.00 94 1026.4
20260505013837 51 342 1.7 0.0 0.00 0.00 0.00 94 1026.6
20260505012430 51 77 2.6 1.7 0.00 0.00 0.00 93 1026.8
20260505011034 51 86 2.6 2.6 0.00 0.00 0.00 95 1027.1
20260505005623 51 53 3.5 2.6 0.00 0.00 0.00 95 1027.2
20260505004220 51 13 1.7 1.7 0.00 0.00 0.00 96 1027.5
20260505002816 50 312 3.5 4.3 0.00 0.00 0.00 96 1027.9
20260505001413 50 45 1.7 2.6 0.00 0.00 0.00 97 1028.1
20260505000009 50 28 0.9 1.7 0.00 0.00 0.00 97 1028.4
20260504234604 50 121 0.9 0.0 0.00 0.00 0.00 98 1028.7
20260504233200 50 354 2.6 0.9 0.00 0.00 0.00 99 1028.7
20260504231756 50 271 3.5 4.3 0.00 0.00 0.00 100 1029.0
20260504230352 50 287 4.3 3.5 0.00 0.00 0.00 100 1029.0
20260504224948 49 276 3.5 3.5 0.00 0.00 0.00 100 1029.0
20260504223544 49 314 2.6 3.5 0.00 0.00 0.00 100 1029.1
20260504222140 49 311 3.5 5.2 0.00 0.00 0.00 100 1029.2
20260504220735 49 311 2.6 4.3 0.00 0.00 0.00 100 1029.4
20260504215335 48 309 2.6 1.7 0.00 0.00 0.00 100 1029.5
20260504213928 48 329 1.7 0.0 0.00 0.00 0.00 100 1029.6
20260504212524 47 354 2.6 1.7 0.00 0.00 0.00 100 1029.7
20260504211121 48 353 3.5 2.6 0.00 0.00 0.00 100 1029.6
20260504205716 48 305 1.7 0.9 0.00 0.00 0.00 100 1029.5
20260504202910 47 271 0.9 2.6 0.00 0.00 0.00 100 1029.6
20260504201507 47 273 0.9 0.0 0.00 0.00 0.00 100 1029.6
20260504200103 47 325 0.9 1.7 0.00 0.00 0.00 100 1029.6
20260504194700 47 293 0.0 1.7 0.00 0.00 0.00 100 1029.6
20260504193256 47 335 0.9 0.0 0.00 0.00 0.00 100 1029.5
20260504191857 47 111 0.0 0.0 0.00 0.00 0.00 100 1029.6
20260504190450 47 148 0.0 0.0 0.00 0.00 0.00 100 1029.5
20260504185046 47 110 0.0 1.7 0.00 0.00 0.00 100 1029.5
20260504183642 47 302 0.0 0.0 0.00 0.00 0.00 100 1029.6
20260504182238 47 302 0.0 0.0 0.00 0.00 0.00 100 1029.6
20260504180835 47 302 0.0 0.0 0.00 0.00 0.00 100 1029.6
20260504175432 47 302 0.0 0.0 0.00 0.00 0.00 100 1029.7
20260504174028 47 357 0.0 0.0 0.00 0.00 0.00 100 1029.7
20260504172625 47 79 0.0 0.0 0.00 0.00 0.00 100 1029.7
20260504171220 47 79 0.0 0.0 0.00 0.00 0.00 100 1029.6
20260504160203 47 307 0.0 0.0 0.00 0.00 0.00 100 1029.9
20260504150547 46 287 0.9 0.0 0.00 0.00 0.00 100 1030.4
20260504140934 45 316 0.0 1.7 0.00 0.00 0.00 100 1031.1
20260504110645 44 318 0.0 0.0 0.00 0.00 0.00 100 1032.3